Regional Weather Roundup
Issued by NWS Albany, NY

Home | Current Version | Previous Version | Text Only | Print | Product List | Glossary On
Versions: 1 2 3 4 5 6 7 8 9 10 11 12 13 14 15 16 17 18 19 20 21 22 23 24 25 26 27 28 29 30 31 32 33 34 35 36 37 38 39 40 41 42 43 44 45 46 47 48 49 50
000
ASUS41 KALY 021610
RWRALY

NEW YORK STATE HOURLY WEATHER ROUNDUP
NATIONAL WEATHER SERVICE ALBANY NY
1200 PM EDT TUE JUN 02 2015

NOTE: "FAIR" INDICATES FEW OR NO CLOUDS BELOW 12,000 FEET WITH NO
SIGNIFICANT WEATHER AND/OR NO OBSTRUCTIONS TO VISIBILITY.

NYZ032-033-038>043-046>054-057>066-NYZ062>081-021700-
EAST


CITY           SKY/WX    TMP DP  RH WIND       PRES   REMARKS
ALBANY         CLOUDY    56  46  69 VRB3      30.19R
GLENS FALLS    CLOUDY    56  47  71 CALM      30.18F
POUGHKEEPSIE   CLOUDY    54  48  80 NE7       30.17R
NEWBURGH       CLOUDY    52  50  93 NE8       30.18R
MONTGOMERY     LGT RAIN  53  50  89 N5        30.16S
WHITE PLAINS   CLOUDY    51  48  89 N8        30.14S
ISLIP          LGT RAIN  52  49  89 N12       30.12S
NEW YORK CITY  DRIZZLE   53  49  86 NE9       30.15S
CENTRAL PARK   CLOUDY    53  49  86 VRB5      30.17S
$$

NYZ005>009-017-018-044>046-055-056-021700-
CENTRAL


CITY           SKY/WX    TMP DP  RH WIND       PRES   REMARKS
FULTON         CLOUDY    57  50  77 NW8       30.19S
SYRACUSE       CLOUDY    57  51  80 CALM      30.18S
ROME           LGT RAIN  56  49  77 CALM      30.19S
ELMIRA         CLOUDY    58  50  75 NE12      30.17F
BINGHAMTON     CLOUDY    54  50  86 N10       30.16R
MONTICELLO     CLOUDY    48  48 100 CALM      30.17S
$$

NYZ026>034-041>043-021700-
NORTH


CITY           SKY/WX    TMP DP  RH WIND       PRES   REMARKS
WATERTOWN      CLOUDY    58  49  72 N7        30.19S
FORT DRUM      NOT AVBL
MASSENA        CLOUDY    55  47  74 NE8       30.21S
SARANAC LAKE   CLOUDY    53  47  79 VRB5      30.14S
PLATTSBURGH    CLOUDY    56  49  77 SE9       30.18F
$$

NYZ001>004-010>016-019>021-021700-
WEST


CITY           SKY/WX    TMP DP  RH WIND       PRES   REMARKS
NIAGARA FALLS  MOSUNNY   62  49  62 NE9       30.20F
BUFFALO        PTSUNNY   60  48  64 NE8       30.20F
DUNKIRK        PTSUNNY   59  48  67 NE9G18    30.21S
JAMESTOWN      PTSUNNY   54  46  76 NE10      30.20F
WELLSVILLE     CLOUDY    53  47  79 N8        30.20S
ROCHESTER      CLOUDY    55  47  74 N6        30.22S
PENN YAN       CLOUDY    55  48  77 VRB6      30.20S
$$

             KEY
       WCI = WIND CHILL INDEX
       VSB = VISIBILITY
       HX  = HEAT INDEX
$$



USA.gov is the U.S. government's official web portal to all federal, state and local government web resources and services.